Overview Statistics Trail Chart Weather Telemetry Raw packets
 

This is the latest recevied weather packets stored in our database for station/object OK1VOF-13. If no packets are shown the sender has not sent any weather packets the latest 10 day(s).

<< 32 33 34 35 36 37 38 >>
Time Temp. Humidity Pressure Rain* Wind** Luminosity Snow
1788195923 27.22° C 53% 1017.4 hPa 0 mm - - -
1788194727 27.78° C 53% 1017.4 hPa 0 mm - - -
1788194136 27.78° C 53% 1017.6 hPa 0 mm - - -
1788193837 27.78° C 54% 1017.6 hPa 0 mm - - -
1788193240 27.78° C 55% 1017.7 hPa 0 mm - - -
1788192941 27.22° C 55% 1017.6 hPa 0 mm - - -
1788192045 27.22° C 55% 1017.7 hPa 0 mm - - -
1788191746 27.22° C 55% 1017.7 hPa 0 mm - - -
1788191447 27.22° C 55% 1017.7 hPa 0 mm - - -
1788191148 27.22° C 55% 1017.7 hPa 0 mm - - -
1788190850 27.22° C 56% 1017.7 hPa 0 mm - - -
1788190551 27.22° C 56% 1017.8 hPa 0 mm - - -
1788190252 26.67° C 57% 1017.7 hPa 0 mm - - -
1788189947 26.67° C 58% 1017.8 hPa 0 mm - - -
1788189648 26.67° C 58% 1017.8 hPa 0 mm - - -
1788189356 26.67° C 59% 1017.8 hPa 0 mm - - -
1788188751 26.11° C 59% 1017.9 hPa 0 mm - - -
1788187563 25.56° C 60% 1017.8 hPa 0 mm - - -
1788187257 25.56° C 60% 1017.6 hPa 0 mm - - -
1788186959 25.56° C 61% 1017.8 hPa 0 mm - - -
1788186660 25° C 61% 1017.9 hPa 0 mm - - -
1788186361 25° C 61% 1017.6 hPa 0 mm - - -
1788185770 25° C 61% 1017.7 hPa 0 mm - - -
1788185471 25° C 62% 1017.7 hPa 0 mm - - -
1788185172 24.44° C 62% 1017.8 hPa 0 mm - - -

* Rain latest hour (hover to see other rain measurements)
** Current wind speed in m/s (hover to see current wind gust speed)